Skip to main content Skip to accessibility
This website is not compatible with your web browser. You should install a newer browser. If you live in Jersey and need help upgrading call the States of Jersey web team on 440099.
Homegov.je

L'înformâtion et les sèrvices publyis pouor I'Île dé Jèrri

  • Choose the service you want to log in to:

  • gov.je

    Update your notification preferences

  • one.gov.je

    Access government and parish services

  • CAESAR

    Clear goods through customs or claim relief

  • Talentlink

    View or update your States of Jersey job application

CI Airfield TAFs

JERSEY - EGJJ

EGJJ 151959Z 1521/1606 33005KT 9999 FEW005 PROB30 TEMPO 1600/1606 3000 BR MIFG BKN003 BECMG 1604/1606 BKN008=

GUERNSEY - EGJB

EGJB 151959Z 1521/1606 32005KT 9999 FEW005 PROB40 TEMPO 1522/1606 3000 BR MIFG BKN002 BECMG 1603/1605 BKN006=

ALDERNEY - EGJA

EGJA 151937Z 1519/1603 CNL=

Back to top
rating button